TimeEDT,TemperatureF,Dew PointF,Humidity,Sea Level PressureIn,VisibilityMPH,Wind Direction,Wind SpeedMPH,Gust SpeedMPH,PrecipitationIn,Events,Conditions,WindDirDegrees,DateUTC
12:03 AM,44.6,41.0,87,30.34,10.0,Calm,Calm,-,N/A,,Clear,0,2013-05-03 04:03:00
12:24 AM,44.6,42.8,93,30.34,10.0,Calm,Calm,-,N/A,,Clear,0,2013-05-03 04:24:00
12:42 AM,42.8,41.0,93,30.35,10.0,Calm,Calm,-,N/A,,Clear,0,2013-05-03 04:42:00
1:03 AM,42.8,41.0,93,30.35,10.0,Calm,Calm,-,N/A,,Clear,0,2013-05-03 05:03:00
1:24 AM,42.8,41.0,93,30.34,10.0,Calm,Calm,-,N/A,,Clear,0,2013-05-03 05:24:00
1:45 AM,41.0,41.0,100,30.34,10.0,Calm,Calm,-,N/A,,Clear,0,2013-05-03 05:45:00
2:03 AM,41.0,41.0,100,30.34,10.0,Calm,Calm,-,N/A,,Clear,0,2013-05-03 06:03:00
5:03 AM,39.2,37.4,93,30.35,10.0,Calm,Calm,-,N/A,,Clear,0,2013-05-03 09:03:00
5:24 AM,41.0,37.4,87,30.36,10.0,Calm,Calm,-,N/A,,Clear,0,2013-05-03 09:24:00
5:45 AM,39.2,37.4,93,30.36,10.0,ENE,5.8,-,N/A,,Clear,70,2013-05-03 09:45:00
6:03 AM,41.0,39.2,93,30.37,10.0,ENE,3.5,-,N/A,,Clear,70,2013-05-03 10:03:00
6:24 AM,41.0,39.2,93,30.38,7.0,East,3.5,-,N/A,,Clear,80,2013-05-03 10:24:00
6:45 AM,42.8,42.8,100,30.39,7.0,ENE,3.5,-,N/A,,Clear,70,2013-05-03 10:45:00
7:03 AM,46.4,44.6,93,30.39,10.0,ENE,4.6,-,N/A,,Clear,70,2013-05-03 11:03:00
7:24 AM,50.0,46.4,87,30.40,10.0,ENE,3.5,-,N/A,,Clear,60,2013-05-03 11:24:00
7:45 AM,51.8,46.4,82,30.40,10.0,East,9.2,-,N/A,,Clear,80,2013-05-03 11:45:00
8:03 AM,53.6,46.4,77,30.40,10.0,East,10.4,-,N/A,,Clear,80,2013-05-03 12:03:00
8:24 AM,53.6,44.6,72,30.39,10.0,East,9.2,-,N/A,,Clear,80,2013-05-03 12:24:00
8:45 AM,57.2,42.8,59,30.40,10.0,East,13.8,20.7,N/A,,Clear,90,2013-05-03 12:45:00
9:06 AM,55.4,41.0,58,30.40,10.0,East,11.5,16.1,N/A,,Clear,90,2013-05-03 13:06:00
9:24 AM,57.2,41.0,55,30.41,10.0,East,13.8,18.4,N/A,,Clear,90,2013-05-03 13:24:00
9:45 AM,57.2,41.0,55,30.41,10.0,East,10.4,-,N/A,,Clear,90,2013-05-03 13:45:00
10:06 AM,59.0,39.2,48,30.41,10.0,East,11.5,16.1,N/A,,Clear,100,2013-05-03 14:06:00
10:24 AM,59.0,41.0,51,30.41,10.0,East,12.7,-,N/A,,Clear,80,2013-05-03 14:24:00
10:45 AM,60.8,41.0,48,30.41,10.0,East,11.5,-,N/A,,Clear,90,2013-05-03 14:45:00
11:06 AM,60.8,41.0,48,30.41,10.0,ESE,12.7,-,N/A,,Clear,110,2013-05-03 15:06:00
11:24 AM,60.8,41.0,48,30.41,10.0,East,10.4,-,N/A,,Clear,90,2013-05-03 15:24:00
11:45 AM,62.6,37.4,39,30.41,10.0,East,12.7,17.3,N/A,,Clear,90,2013-05-03 15:45:00
12:06 PM,62.6,39.2,42,30.41,10.0,East,15.0,19.6,N/A,,Clear,100,2013-05-03 16:06:00
12:24 PM,62.6,37.4,39,30.40,10.0,SE,12.7,16.1,N/A,,Clear,130,2013-05-03 16:24:00
12:45 PM,62.6,37.4,39,30.39,10.0,East,8.1,16.1,N/A,,Clear,80,2013-05-03 16:45:00
1:06 PM,62.6,39.2,42,30.38,10.0,ESE,12.7,17.3,N/A,,Clear,110,2013-05-03 17:06:00
1:24 PM,62.6,37.4,39,30.38,10.0,ESE,13.8,17.3,N/A,,Clear,120,2013-05-03 17:24:00
1:45 PM,62.6,37.4,39,30.38,10.0,ESE,8.1,16.1,N/A,,Clear,120,2013-05-03 17:45:00
2:06 PM,64.4,41.0,42,30.38,10.0,East,11.5,18.4,N/A,,Clear,90,2013-05-03 18:06:00
2:24 PM,64.4,42.8,45,30.37,10.0,East,8.1,17.3,N/A,,Clear,90,2013-05-03 18:24:00
2:45 PM,62.6,42.8,48,30.37,10.0,SE,9.2,16.1,N/A,,Clear,140,2013-05-03 18:45:00
3:06 PM,64.4,42.8,45,30.37,10.0,ESE,16.1,20.7,N/A,,Scattered Clouds,110,2013-05-03 19:06:00
3:24 PM,62.6,42.8,48,30.37,10.0,East,8.1,17.3,N/A,,Scattered Clouds,100,2013-05-03 19:24:00
3:45 PM,62.6,41.0,45,30.37,10.0,SE,10.4,17.3,N/A,,Mostly Cloudy,130,2013-05-03 19:45:00
4:06 PM,62.6,41.0,45,30.36,10.0,ESE,15.0,18.4,N/A,,Scattered Clouds,120,2013-05-03 20:06:00
4:24 PM,62.6,41.0,45,30.35,10.0,SE,10.4,17.3,N/A,,Clear,140,2013-05-03 20:24:00
4:45 PM,60.8,41.0,48,30.35,10.0,East,10.4,16.1,N/A,,Clear,80,2013-05-03 20:45:00
5:24 PM,60.8,41.0,48,30.35,10.0,ESE,11.5,-,N/A,,Clear,110,2013-05-03 21:24:00
5:45 PM,60.8,41.0,48,30.35,10.0,ESE,12.7,-,N/A,,Clear,120,2013-05-03 21:45:00
6:06 PM,59.0,41.0,51,30.35,10.0,ESE,11.5,-,N/A,,Clear,120,2013-05-03 22:06:00
6:27 PM,57.2,41.0,55,30.35,10.0,ESE,9.2,-,N/A,,Clear,120,2013-05-03 22:27:00
6:45 PM,57.2,41.0,55,30.36,10.0,SE,6.9,-,N/A,,Clear,140,2013-05-03 22:45:00
7:06 PM,55.4,41.0,58,30.36,10.0,ESE,10.4,-,N/A,,Clear,120,2013-05-03 23:06:00
7:27 PM,53.6,41.0,62,30.37,10.0,SE,9.2,-,N/A,,Clear,130,2013-05-03 23:27:00
7:45 PM,53.6,39.2,58,30.37,10.0,ESE,8.1,-,N/A,,Clear,120,2013-05-03 23:45:00
8:06 PM,51.8,39.2,62,30.37,10.0,SE,9.2,-,N/A,,Clear,130,2013-05-04 00:06:00
8:27 PM,51.8,39.2,62,30.37,10.0,ESE,6.9,-,N/A,,Clear,120,2013-05-04 00:27:00
8:45 PM,50.0,39.2,66,30.37,10.0,ESE,6.9,-,N/A,,Clear,120,2013-05-04 00:45:00
10:06 PM,46.4,39.2,76,30.38,10.0,Calm,Calm,-,N/A,,Clear,0,2013-05-04 02:06:00
10:27 PM,42.8,37.4,81,30.38,10.0,Calm,Calm,-,N/A,,Clear,0,2013-05-04 02:27:00
10:45 PM,42.8,37.4,81,30.37,10.0,ESE,3.5,-,N/A,,Clear,110,2013-05-04 02:45:00
11:06 PM,42.8,37.4,81,30.37,10.0,East,3.5,-,N/A,,Clear,100,2013-05-04 03:06:00
11:27 PM,41.0,37.4,87,30.37,10.0,Calm,Calm,-,N/A,,Clear,0,2013-05-04 03:27:00
11:45 PM,41.0,37.4,87,30.37,10.0,Calm,Calm,-,N/A,,Clear,0,2013-05-04 03:45:00